Location: Unspecified
(22.6800°N, 112.2000°E)
Time: 23:46:16
(UTC+08:00)

A-11 Canister half - Visible Passes

Search period start: 28 July 2021 00:00
Search period end: 07 August 2021 00:00
Orbit: 1513 x 1687 km, 47.2° (Epoch: 28 July)

Date Brightness Start Highest point End Pass type
(mag) Time Alt. Az. Time Alt. Az. Time Alt. Az.
28 Jul 9.7 01:10:01 10° NW 01:17:52 49° N 01:17:52 49° N visible
28 Jul 10.9 03:15:36 10° WNW 03:35:12 - SSE 03:15:56 11° WNW visible
28 Jul 11.2 20:34:17 10° NW 20:40:22 17° N 20:46:33 10° NNE visible
28 Jul 10.9 22:42:41 10° NNW 22:49:40 20° NNE 22:56:37 10° ENE visible
29 Jul 9.8 00:47:07 10° NW 00:54:45 46° N 00:54:45 46° N visible
29 Jul 10.9 02:52:29 10° WNW 02:52:50 11° WNW 02:52:50 11° WNW visible
29 Jul 11.2 20:11:00 10° NW 20:17:12 18° NNW 20:23:30 10° NNE visible
29 Jul 10.9 22:19:43 10° NNW 22:26:30 19° NNE 22:33:17 10° ENE visible
30 Jul 9.9 00:24:11 10° NW 00:31:55 44° N 00:31:55 44° N visible
30 Jul 10.9 02:29:25 10° WNW 02:30:01 12° WNW 02:30:01 12° WNW visible
30 Jul 11.1 19:47:42 10° NW 19:54:01 18° NNW 20:00:27 10° NNE visible
30 Jul 10.9 21:56:44 10° NNW 22:03:20 19° NNE 22:09:57 10° NE visible
31 Jul 9.9 00:01:16 10° NW 00:09:17 43° NNE 00:09:17 43° NNE visible
31 Jul 10.9 02:06:21 10° WNW 02:07:24 14° WNW 02:07:24 14° WNW visible
31 Jul 11.1 19:24:24 10° NW 19:30:52 19° NNW 19:37:27 10° NNE visible
31 Jul 11.0 21:33:45 10° NNW 21:40:10 18° NNE 21:46:36 10° NE visible
31 Jul 9.9 23:38:21 10° NW 23:46:47 42° NNE 23:46:47 42° NNE visible
01 Aug 10.8 01:43:18 10° NW 01:44:55 16° WNW 01:44:55 16° WNW visible
01 Aug 11.0 21:10:45 10° NNW 21:16:59 18° NNE 21:23:16 10° NE visible
01 Aug 9.9 23:15:26 10° NNW 23:24:23 41° NNE 23:24:23 41° NNE visible
02 Aug 10.7 01:20:16 10° NW 01:22:32 19° WNW 01:22:32 19° WNW visible
02 Aug 11.0 20:47:43 10° NNW 20:53:48 17° N 20:59:56 10° NE visible
02 Aug 9.9 22:52:32 10° NNW 23:01:50 39° NE 23:02:05 39° NE visible
03 Aug 10.6 00:57:15 10° NW 01:00:14 22° NW 01:00:14 22° NW visible
03 Aug 11.0 20:24:42 10° NNW 20:30:37 17° N 20:36:36 10° NE visible
03 Aug 10.0 22:29:38 10° NNW 22:38:47 36° NNE 22:39:51 36° NE visible
04 Aug 10.5 00:34:15 10° NW 00:38:00 27° NW 00:38:00 27° NW visible
04 Aug 11.0 20:01:38 10° NNW 20:07:26 16° N 20:13:16 10° NE visible
04 Aug 10.0 22:06:43 10° NNW 22:15:43 34° NNE 22:17:40 32° NE visible
05 Aug 10.3 00:11:15 10° NW 00:15:50 32° NW 00:15:50 32° NW visible
05 Aug 11.0 19:38:34 10° NNW 19:44:15 16° N 19:49:58 10° NE visible
05 Aug 10.1 21:43:49 10° NNW 21:52:39 33° NNE 21:55:34 28° ENE visible
05 Aug 10.1 23:48:16 10° NW 23:53:43 38° NW 23:53:43 38° NW visible
06 Aug 10.2 21:20:55 10° NNW 21:29:35 31° NNE 21:33:31 24° ENE visible
06 Aug 9.8 23:25:18 10° NW 23:31:41 45° NW 23:31:41 45° NW visible
